Weather History for KMCK - January, 2013

Change the Weather History Date:

Sunday, January 6, 2013

  Actual Average Record
Temperature  
Mean Temperature 25 °F 27 °F  
Max Temperature 39 °F 40 °F 66 °F (1965)
Min Temperature 10 °F 14 °F -28 °F (1912)
Degree Days  
Heating Degree Days 40    
Moisture  
Dew Point 16 °F    
Average Humidity 74    
Maximum Humidity 92    
Minimum Humidity 60    
Precipitation  
Precipitation 0.00 in 0.02 in 0.20 in (1974)
Month to date precipitation T 0.10  
Year to date precipitation T 0.10  
Sea Level Pressure  
Sea Level Pressure 30.28 in    
Wind  
Wind Speed 8 mph (SW)    
Max Wind Speed 16 mph    
Max Gust Speed -    
Visibility 10 miles    
Events      
T = Trace of Precipitation, MM = Missing Value Source: NWS Daily Summary

Daily Weather History Graph

Daily Weather History Graph

Search for Another Location

Airport or City:

Trip Planner

Search our weather history database for the weather conditions in past years. The results will help you decide how hot, cold, wet, or windy it might be!

Date:

Astronomy

Jan. 06, 2013 Rise Set
Actual Time 8:04 AM CST 5:32 PM CST
Civil Twilight 7:34 AM CST 6:02 PM CST
Nautical Twilight 7:00 AM CST 6:36 PM CST
Astronomical Twilight 6:27 AM CST 7:09 PM CST
Moon 2:21 AM CST (1/6) 1:00 PM CST (1/6)
Length of Visible Light 10h 27m
Length of Day
9h 27m
Waning Crescent, 33% of the Moon is Illuminated
Jan 6
Waning Crescent
Jan 11
New
Jan 18
First Quarter
Jan 26
Full
Feb 3
Last Quarter

Hourly Weather History & Observations

Time (CST) Temp. Windchill Dew Point Humidity Pressure Visibility Wind Dir Wind Speed Gust Speed Precip Events Conditions
12:53 AM 21.0 °F 9.9 °F 15.1 °F 78% 30.38 in 10.0 mi West 10.4 mph - N/A   Clear
1:53 AM 18.0 °F 7.7 °F 12.9 °F 81% 30.37 in 10.0 mi West 8.1 mph - N/A   Clear
2:53 AM 17.1 °F 5.0 °F 12.0 °F 81% 30.38 in 10.0 mi WSW 10.4 mph - N/A   Clear
3:53 AM 17.1 °F 5.0 °F 10.9 °F 77% 30.39 in 10.0 mi West 10.4 mph - N/A   Clear
4:53 AM 16.0 °F 1.7 °F 10.0 °F 77% 30.39 in 10.0 mi West 13.8 mph - N/A   Clear
5:53 AM 16.0 °F 0.6 °F 9.0 °F 74% 30.39 in 10.0 mi West 16.1 mph - N/A   Clear
6:53 AM 12.9 °F 5.2 °F 6.1 °F 74% 30.41 in 10.0 mi West 4.6 mph - N/A   Clear
7:53 AM 12.9 °F 6.9 °F 6.1 °F 74% 30.42 in 10.0 mi West 3.5 mph - N/A   Clear
8:53 AM 12.0 °F 2.7 °F 6.1 °F 77% 30.43 in 10.0 mi West 5.8 mph - N/A   Clear
9:53 AM 14.0 °F 5.1 °F 7.0 °F 74% 30.42 in 10.0 mi WSW 5.8 mph - N/A   Clear
10:53 AM 18.0 °F 8.7 °F 10.0 °F 71% 30.40 in 10.0 mi WSW 6.9 mph - N/A   Clear
11:53 AM 21.9 °F - 12.0 °F 66% 30.37 in 10.0 mi Calm Calm - N/A   Clear
12:53 PM 28.0 °F 24.2 °F 17.1 °F 63% 30.31 in 10.0 mi ESE 3.5 mph - N/A   Clear
1:53 PM 34.0 °F - 21.9 °F 61% 30.26 in 10.0 mi Calm Calm - N/A   Clear
2:53 PM 39.0 °F 32.3 °F 26.1 °F 60% 30.21 in 10.0 mi South 10.4 mph - N/A   Clear
3:53 PM 39.0 °F 32.3 °F 27.0 °F 62% 30.19 in 10.0 mi South 10.4 mph - N/A   Clear
4:53 PM 37.9 °F 32.7 °F 26.1 °F 62% 30.17 in 10.0 mi SSE 6.9 mph - N/A   Clear
5:53 PM 32.0 °F 26.4 °F 23.0 °F 69% 30.16 in 10.0 mi SE 5.8 mph - N/A   Clear
6:53 PM 32.0 °F 23.6 °F 23.0 °F 69% 30.15 in 10.0 mi SSE 10.4 mph - N/A   Clear
7:53 PM 28.0 °F - 21.9 °F 78% 30.15 in 10.0 mi Calm Calm - N/A   Clear
8:53 PM 26.1 °F - 21.9 °F 84% 30.15 in 10.0 mi Calm Calm - N/A   Clear
9:53 PM 23.0 °F 15.8 °F 19.9 °F 88% 30.13 in 10.0 mi SE 5.8 mph - N/A   Clear
10:53 PM 21.9 °F 11.7 °F 19.9 °F 92% 30.10 in 10.0 mi SSE 9.2 mph - N/A   Clear
11:53 PM 21.0 °F - 18.0 °F 88% 30.08 in 10.0 mi Calm Calm - N/A   Clear